Location: Ozark
(37.5425°N, 88.7628°W)
Time: 02:04:22
(UTC+00:00)

Cosmos 1340 Rocket - Pass Details

Date: 26 January 2020
Orbit: 530 x 558 km, 81.2° (Epoch: 25 February)

Event Time Altitude Azimuth Distance (km) Brightness Sun altitude
Rises 12:20:58 0° 194° (SSW) 2,661 6.4 -8.7°
Reaches altitude 10° 12:23:07 10° 198° (SSW) 1,774 5.4 -8.3°
Maximum altitude 12:26:59 64° 280° (W) 591 2.7 -7.6°
Drops below altitude 10° 12:30:53 10° 2° (N) 1,784 5.3 -6.9°
Sets 12:33:03 0° 6° (N) 2,679 6.2 -6.5°
